Waarnemingen

Advertentie
Mijn weer
Pau, Frankrijk (7610): temperatuur & dauwpunt: 13.07.2018 23:00:00 - 19.07.2018 23:00:00 (CEST)Pau, Frankrijk (7610): temperatuur 5cm: 13.07.2018 23:00:00 - 19.07.2018 23:00:00 (CEST)Pau, Frankrijk (7610): temperatuur -20cm & temperatuur -100cm: 13.07.2018 23:00:00 - 19.07.2018 23:00:00 (CEST)Pau, Frankrijk (7610): windsnelheid & windstoten: 13.07.2018 23:00:00 - 19.07.2018 23:00:00 (CEST)Pau, Frankrijk (7610): windrichting: 13.07.2018 23:00:00 - 19.07.2018 23:00:00 (CEST)Pau, Frankrijk (7610): luchtdruk: 13.07.2018 23:00:00 - 19.07.2018 23:00:00 (CEST)Pau, Frankrijk (7610): zicht: 13.07.2018 23:00:00 - 19.07.2018 23:00:00 (CEST)Pau, Frankrijk (7610): Zonneschijnduur: 13.07.2018 23:00:00 - 19.07.2018 23:00:00 (CEST)Pau, Frankrijk (7610): neerslag: 13.07.2018 23:00:00 - 19.07.2018 23:00:00 (CEST)
Datum & Tijd tt [°C] td [°C] tt 5cm [°C] tt -20cm [°C] tt -100cm [°C] ff [km/u] ff [kn] fx [km/u] fx [kn] dd ppp [hPa] vv [km] sd [min] rr [mm]
19.07.2018 23:00:00 - - - - - - - - - - - - - -
19.07.2018 22:00:00 22,2 19,0 21,7 23,0 19,9 18 10 28 15 W 1016,2 20 0 0,0
19.07.2018 21:00:00 23,0 19,2 22,7 22,9 19,9 16 9 36 19 W 1015,4 22 24 0,0
19.07.2018 20:00:00 24,9 20,2 25,5 22,8 19,9 28 15 38 20 W 1014,5 20 38 0,0
19.07.2018 19:00:00 28,2 19,7 30,1 22,6 19,9 16 8 25 13 WNW 1013,7 25 60 0,0
19.07.2018 18:00:00 29,0 20,7 36,1 22,5 19,9 9 5 26 14 W 1013,5 19 60 0,0
19.07.2018 17:00:00 28,9 20,1 37,3 22,4 19,9 7 4 16 8 NW 1013,5 42 55 0,0
19.07.2018 16:00:00 28,2 19,4 36,9 22,3 19,9 3 1 17 9 ZO 1013,7 25 60 0,0
19.07.2018 15:00:00 28,0 19,5 38,7 22,3 19,9 5 3 16 9 ONO 1014,0 21 60 0,0
19.07.2018 14:00:00 26,8 20,2 37,9 22,2 19,9 4 2 16 9 NO 1014,5 19 60 0,0
19.07.2018 13:00:00 25,6 19,3 36,2 22,2 19,9 8 4 19 11 OZO 1015,0 19 60 0,0
19.07.2018 12:00:00 24,4 19,7 29,4 22,3 19,9 8 4 22 12 O 1015,6 20 23 0,0
19.07.2018 11:00:00 23,1 19,1 25,0 22,3 19,9 6 3 13 7 O 1016,1 16 6 0,0
19.07.2018 10:00:00 20,8 18,9 24,7 22,3 19,9 3 2 8 5 NW 1016,5 11 15 0,0
19.07.2018 09:00:00 20,0 19,5 19,9 22,4 19,9 5 3 11 6 OZO 1016,4 5 9 0,0
19.07.2018 08:00:00 18,9 18,4 18,4 22,4 19,9 5 3 9 5 Z 1016,5 1,7 0 0,0
19.07.2018 07:00:00 18,1 17,6 18,0 22,5 19,9 5 3 9 5 O 1016,5 1,2 0 0,0
19.07.2018 06:00:00 17,6 17,1 17,0 22,6 19,9 4 2 7 4 O 1016,3 4,9 0 0,0
19.07.2018 05:00:00 17,3 16,8 14,4 22,6 19,9 6 3 8 5 ZZO 1015,8 6 0 0,0
19.07.2018 04:00:00 16,2 15,6 13,8 22,7 19,9 4 2 6 3 ZZO 1015,9 0,1 0 0,0
19.07.2018 03:00:00 16,9 16,3 14,3 22,7 19,9 4 2 9 5 NO 1016,2 0,2 0 0,0
19.07.2018 02:00:00 17,2 16,6 14,7 22,7 19,9 2 1 5 3 WZW 1016,2 0,2 0 0,0
19.07.2018 01:00:00 17,7 16,9 15,1 22,8 19,9 4 2 9 5 Z 1016,1 0,7 0 0,0
19.07.2018 00:00:00 18,0 17,0 15,3 22,8 19,9 0 0 6 3 N 1016,1 4,2 0 0,2
18.07.2018 23:00:00 18,7 17,2 16,9 22,8 19,9 4 2 21 11 O 1016,1 26 0 0,0
18.07.2018 22:00:00 19,1 17,4 18,1 22,8 19,9 14 8 29 16 Z 1016,2 38 10 0,6
18.07.2018 21:00:00 19,0 17,7 18,0 22,7 19,9 14 8 21 11 O 1016,1 7 10 3,6
18.07.2018 20:00:00 20,0 16,6 18,2 22,6 19,9 14 7 56 30 ZW 1016,4 6 0 0,2
18.07.2018 19:00:00 26,4 18,5 26,3 22,6 19,9 8 5 22 12 NNO 1013,5 38 34 0,0
18.07.2018 18:00:00 26,5 20,3 23,2 22,5 19,9 8 4 17 9 NNO 1013,3 35 13 1,6
18.07.2018 17:00:00 26,8 18,1 25,5 22,4 19,9 12 7 21 11 NNW 1013,0 20 23 0,0
18.07.2018 16:00:00 27,8 19,8 23,8 22,4 19,9 10 5 17 9 NNW 1012,6 20 24 1,0
18.07.2018 15:00:00 27,1 18,1 26,9 22,3 19,9 8 5 23 13 NNO 1012,5 39 5 0,0
18.07.2018 14:00:00 27,7 17,2 32,8 22,3 19,9 12 7 26 14 NO 1012,5 33 35 0,0
18.07.2018 13:00:00 27,7 17,8 29,5 22,3 19,9 15 8 29 15 ONO 1012,6 28 29 0,0
18.07.2018 12:00:00 26,7 16,9 28,8 22,3 19,9 14 8 29 16 ONO 1012,8 26 46 0,0
18.07.2018 11:00:00 25,8 16,9 30,5 22,4 19,9 19 10 31 17 O 1013,3 18 60 0,0
18.07.2018 10:00:00 24,4 16,9 23,6 22,5 19,9 16 9 32 17 O 1013,7 18 60 0,0
18.07.2018 09:00:00 21,9 17,1 18,1 22,5 19,9 4 2 11 6 ZZO 1014,6 18 58 0,0
18.07.2018 08:00:00 18,4 16,2 14,3 22,6 19,9 5 3 10 6 O 1015,0 19 47 0,2
18.07.2018 07:00:00 16,2 15,2 13,6 22,7 19,9 3 2 10 5 O 1015,4 17 0 0,0
18.07.2018 06:00:00 16,4 15,3 13,5 22,7 19,9 5 3 8 5 NO 1015,9 14 0 0,0
18.07.2018 05:00:00 16,8 15,8 13,7 22,8 19,9 5 3 7 4 ZO 1015,8 17 0 0,0
18.07.2018 04:00:00 17,0 15,7 13,8 22,9 19,9 5 3 6 4 ZO 1016,3 20 0 0,0
18.07.2018 03:00:00 17,4 15,7 14,1 22,9 19,9 0 0 4 2 N 1016,3 23 0 0,0
18.07.2018 02:00:00 18,1 15,9 14,8 22,9 19,9 0 0 5 3 N 1016,7 26 0 0,0
18.07.2018 01:00:00 18,9 16,1 15,2 23,0 19,9 5 3 13 7 ZO 1017,0 29 0 0,0
18.07.2018 00:00:00 19,9 16,1 16,0 23,0 19,9 5 3 11 6 O 1017,1 31 0 0,0
17.07.2018 23:00:00 20,9 16,3 17,0 22,9 19,9 6 4 10 5 O 1017,3 39 0 0,0
17.07.2018 22:00:00 22,4 16,4 17,9 22,9 19,9 8 4 13 7 O 1017,1 13 11 0,0
17.07.2018 21:00:00 25,1 16,0 21,6 22,8 19,9 6 3 14 8 ONO 1016,9 20 60 0,0
17.07.2018 20:00:00 26,0 16,0 26,9 22,7 19,9 8 4 17 9 ONO 1016,8 47 51 0,0
17.07.2018 19:00:00 26,4 15,7 27,0 22,6 19,9 8 4 23 13 O 1017,0 60 35 0,0
17.07.2018 18:00:00 26,8 15,5 29,8 22,5 19,9 7 4 22 12 O 1017,5 53 50 0,0
17.07.2018 17:00:00 27,0 16,9 33,5 22,4 19,9 10 5 19 10 O 1017,8 52 55 0,0
17.07.2018 16:00:00 26,4 14,8 35,8 22,3 19,9 9 5 23 12 ONO 1018,4 52 55 0,0
17.07.2018 15:00:00 25,8 16,4 30,9 22,3 19,9 6 4 22 12 OZO 1018,7 49 49 0,0
17.07.2018 14:00:00 25,6 17,3 28,6 22,3 19,9 7 4 19 10 O 1019,3 20 49 0,0
17.07.2018 13:00:00 24,7 16,4 30,0 22,3 19,9 9 5 22 12 ONO 1019,8 54 54 0,0
17.07.2018 12:00:00 23,4 16,0 26,6 22,3 19,9 5 3 19 10 O 1020,3 57 30 0,0
17.07.2018 11:00:00 22,6 16,6 31,8 22,4 19,9 2 1 14 7 NNW 1020,5 45 60 0,0
17.07.2018 10:00:00 21,8 16,3 22,4 22,4 19,9 5 3 11 6 O 1020,7 43 60 0,0
17.07.2018 09:00:00 19,1 16,5 17,2 22,5 19,9 7 4 13 7 ZO 1021,0 23 60 0,0
17.07.2018 08:00:00 17,3 16,2 14,3 22,6 19,9 6 3 11 6 OZO 1020,9 16 58 0,0
17.07.2018 07:00:00 15,5 14,9 12,9 22,6 19,9 7 4 11 6 OZO 1021,2 8 0 0,0
17.07.2018 06:00:00 15,4 14,6 13,2 22,7 19,9 3 2 11 6 O 1021,1 10 0 0,0
17.07.2018 05:00:00 15,8 15,0 13,5 22,7 19,9 6 3 10 5 OZO 1021,2 6 0 0,2
17.07.2018 04:00:00 16,2 15,4 12,8 22,9 19,9 6 3 10 5 OZO 1021,3 7 0 0,0
17.07.2018 03:00:00 16,5 15,2 13,5 22,9 19,8 4 2 9 5 Z 1021,5 15 0 0,0
17.07.2018 02:00:00 17,0 15,5 14,9 22,9 19,9 6 4 13 7 ZW 1021,8 20 0 0,0
17.07.2018 01:00:00 17,4 15,7 16,0 22,9 19,8 9 5 18 10 ZW 1022,2 21 0 0,0
17.07.2018 00:00:00 18,1 16,1 15,7 23,0 19,8 10 5 16 9 ZZW 1022,1 21 0 0,0
16.07.2018 23:00:00 18,4 16,0 16,7 23,0 19,8 13 7 23 12 W 1021,8 24 0 0,0
16.07.2018 22:00:00 20,3 16,7 19,4 23,0 19,8 17 9 30 16 W 1021,0 25 0 0,0
16.07.2018 21:00:00 21,0 16,8 20,4 23,0 19,8 13 7 32 17 W 1020,2 27 30 0,0
16.07.2018 20:00:00 22,2 16,7 21,7 23,0 19,8 23 12 43 23 WNW 1019,4 28 31 0,0
16.07.2018 19:00:00 22,8 17,7 21,8 23,0 19,8 20 11 34 18 WNW 1018,7 18 28 0,0
16.07.2018 18:00:00 23,0 19,2 19,9 23,0 19,8 8 4 22 12 NW 1018,6 13 8 1,4
16.07.2018 17:00:00 21,2 18,0 20,0 23,0 19,8 15 8 42 23 W 1018,6 2,3 34 2,0
16.07.2018 16:00:00 22,4 18,4 20,2 23,1 19,8 22 12 34 19 WZW 1018,4 13 27 0,0
16.07.2018 15:00:00 21,4 17,6 21,1 23,1 19,8 17 9 33 18 WZW 1018,4 21 16 0,0
16.07.2018 14:00:00 19,9 17,5 19,3 23,2 19,8 15 8 25 14 ZW 1018,5 10 10 0,8
16.07.2018 13:00:00 18,0 17,0 17,9 23,2 19,8 12 7 24 13 W 1018,1 4,5 0 6,2
16.07.2018 12:00:00 19,1 17,8 18,4 23,3 19,8 4 2 13 7 WNW 1017,7 11 0 1,1
16.07.2018 11:00:00 18,4 17,4 18,2 23,4 19,8 4 2 28 15 Z 1017,5 15 0 3,8
16.07.2018 10:00:00 18,7 17,4 18,3 23,4 19,8 11 6 17 9 ZZW 1017,1 9 0 0,0
16.07.2018 09:00:00 18,8 17,3 18,3 23,5 19,8 13 7 24 13 ZW 1016,7 12 0 0,0
16.07.2018 08:00:00 19,2 17,3 18,2 23,5 19,8 14 8 24 13 W 1015,7 11 0 0,2
16.07.2018 07:00:00 19,3 17,4 18,4 23,6 19,8 13 7 30 16 W 1014,9 16 0 0,0
16.07.2018 06:00:00 20,3 19,0 19,5 23,6 19,8 4 2 19 10 WNW 1014,8 4,6 0 1,4
16.07.2018 05:00:00 20,6 19,3 19,9 23,7 19,8 16 8 24 13 W 1014,2 7 0 0,2
16.07.2018 04:00:00 20,7 19,0 20,1 23,7 19,8 16 9 27 15 W 1014,3 8 0 0,0
16.07.2018 03:00:00 21,0 18,6 20,3 23,7 19,8 17 9 30 16 WZW 1015,2 16 0 0,0
16.07.2018 02:00:00 21,5 18,9 20,8 23,8 19,8 17 9 26 14 WZW 1015,2 16 0 0,0
16.07.2018 01:00:00 21,6 19,5 21,1 23,8 19,8 9 5 20 11 W 1015,6 14 0 0,0
16.07.2018 00:00:00 21,7 19,6 20,8 23,8 19,8 11 6 26 14 W 1015,4 13 0 0,0
15.07.2018 23:00:00 21,8 19,2 20,9 23,8 19,8 12 7 24 13 WZW 1015,1 16 0 0,0
15.07.2018 22:00:00 22,1 18,9 20,4 23,7 19,8 14 8 24 13 W 1014,8 20 0 0,0
15.07.2018 21:00:00 23,5 18,4 22,3 23,6 19,8 14 8 31 17 W 1014,0 23 21 0,0
15.07.2018 20:00:00 25,6 19,9 25,7 23,5 19,7 20 11 31 17 NW 1013,3 28 29 0,0
15.07.2018 19:00:00 27,2 20,5 29,5 23,4 19,7 19 10 29 16 NW 1012,9 23 55 0,0
15.07.2018 18:00:00 28,2 20,2 34,2 23,2 19,7 14 8 24 13 WNW 1012,8 26 60 0,0
15.07.2018 17:00:00 28,5 20,0 31,6 23,1 19,7 5 3 16 9 ZZW 1012,9 20 42 0,0
15.07.2018 16:00:00 28,0 19,8 31,9 23,0 19,7 9 5 18 10 N 1013,4 20 45 0,0
15.07.2018 15:00:00 27,2 19,0 33,7 23,0 19,8 4 2 21 12 WZW 1013,8 16 51 0,0
15.07.2018 14:00:00 26,8 19,4 31,5 23,0 19,7 8 4 21 11 WZW 1014,3 13 51 0,0
15.07.2018 13:00:00 25,6 19,3 30,6 22,9 19,7 10 6 24 13 W 1015,0 8 45 0,0
15.07.2018 12:00:00 24,4 19,7 27,4 23,0 19,7 9 5 20 11 W 1015,2 14 33 0,0
15.07.2018 11:00:00 23,0 19,6 25,5 23,1 19,7 12 7 18 10 WNW 1015,4 19 8 0,0
15.07.2018 10:00:00 22,6 19,6 24,1 23,1 19,7 4 2 13 7 WNW 1015,4 16 35 0,0
15.07.2018 09:00:00 20,3 18,8 19,8 23,2 19,7 0 0 10 5 N 1015,8 15 5 0,0
15.07.2018 08:00:00 18,7 17,9 16,7 23,3 19,7 6 4 13 7 ZO 1015,9 6 1 0,0
15.07.2018 07:00:00 17,4 16,6 16,1 23,4 19,7 5 3 7 4 ZZO 1015,5 7 0 0,0
15.07.2018 06:00:00 16,8 15,5 14,6 23,4 19,7 2 1 13 7 NO 1015,4 9 0 0,0
15.07.2018 05:00:00 17,4 15,9 15,0 23,5 19,7 11 6 14 8 ZO 1015,1 11 0 0,0
15.07.2018 04:00:00 17,4 15,6 15,0 23,6 19,7 2 1 24 13 NO 1015,2 46 0 0,0
15.07.2018 03:00:00 18,2 15,3 16,0 23,6 19,7 7 4 29 15 Z 1015,1 53 0 0,0
15.07.2018 02:00:00 19,1 15,8 17,0 23,6 19,7 16 9 41 22 OZO 1015,0 46 0 0,0
15.07.2018 01:00:00 19,4 15,7 17,3 23,6 19,7 24 13 46 25 ZZO 1015,6 30 0 0,2
15.07.2018 00:00:00 21,6 18,8 20,0 23,6 19,7 19 10 42 23 ZZO 1015,7 11 0 1,6
14.07.2018 23:00:00 24,6 20,9 22,5 23,6 19,7 11 6 21 11 NW 1015,9 23 0 0,0
14.07.2018 22:00:00 25,0 20,5 22,8 23,5 19,7 10 6 13 7 WNW 1014,6 22 0 0,0
14.07.2018 21:00:00 27,3 19,6 23,8 23,4 19,7 5 3 12 6 ONO 1013,8 29 2 0,0
14.07.2018 20:00:00 29,7 18,8 30,2 23,3 19,7 6 3 16 9 O 1013,8 34 60 0,0
14.07.2018 19:00:00 30,0 18,8 33,4 23,2 19,7 8 5 18 10 ONO 1013,8 34 60 0,0
14.07.2018 18:00:00 30,4 19,4 37,0 23,0 19,7 10 5 21 11 NO 1014,0 20 60 0,0
14.07.2018 17:00:00 30,1 18,8 37,7 22,9 19,7 9 5 21 11 O 1014,5 20 60 0,0
14.07.2018 16:00:00 29,4 18,8 36,3 22,8 19,7 11 6 32 17 O 1014,8 29 60 0,0
14.07.2018 15:00:00 28,8 19,4 38,8 22,7 19,7 11 6 19 10 O 1015,4 20 56 0,0
14.07.2018 14:00:00 28,2 18,6 37,9 22,7 19,7 7 4 19 10 O 1015,9 20 57 0,0
14.07.2018 13:00:00 26,4 20,5 31,5 22,7 19,7 6 4 17 9 NNO 1016,3 27 43 0,0
14.07.2018 12:00:00 25,3 19,9 30,2 22,7 19,7 9 5 16 8 W 1016,6 18 35 0,0
14.07.2018 11:00:00 24,9 19,5 30,1 22,7 19,7 5 3 22 12 N 1016,8 19 44 0,0
14.07.2018 10:00:00 23,0 20,1 27,0 22,8 19,7 8 5 14 8 NNW 1016,7 9 55 0,0
14.07.2018 09:00:00 22,3 19,5 21,1 22,8 19,7 4 2 9 5 N 1016,3 9 60 0,0
14.07.2018 08:00:00 20,4 19,7 18,1 22,9 19,7 5 3 13 7 NO 1015,9 5 30 0,0
14.07.2018 07:00:00 19,5 18,8 18,2 22,9 19,7 8 5 18 10 O 1015,8 4,0 0 0,2
14.07.2018 06:00:00 19,9 19,2 18,9 23,0 19,7 10 5 15 8 OZO 1016,8 2,3 0 0,0
14.07.2018 05:00:00 20,1 19,3 18,6 23,0 19,7 9 5 25 13 Z 1018,2 2,8 0 0,6
14.07.2018 04:00:00 19,6 18,8 17,8 23,1 19,7 13 7 21 11 ZW 1019,4 6 0 0,0
14.07.2018 03:00:00 19,3 18,0 18,1 23,1 19,7 5 3 16 8 WNW 1018,3 9 0 0,0
14.07.2018 02:00:00 19,5 17,8 18,1 23,1 19,7 11 6 18 10 NO 1017,5 15 0 0,0
14.07.2018 01:00:00 19,8 18,1 18,4 23,2 19,7 9 5 18 10 ONO 1017,8 17 0 0,0
14.07.2018 00:00:00 20,0 18,3 18,4 23,2 19,7 8 5 29 16 ONO 1018,1 14 0 0,0
13.07.2018 23:00:00 21,1 19,0 19,8 23,2 19,7 17 9 31 17 ZO 1017,0 15 0 0,8

tt = temperatuur
td = dauwpunt
tt 5cm = temperatuur 5cm
tt -20cm = temperatuur -20cm
tt -100cm = temperatuur -100cm
ff = windsnelheid
fx = windstoten
dd = windrichting
ppp = luchtdruk
vv = zicht
sd = Zonneschijnduur
rr = neerslag

Weerstations in de omgeving